Flag for Saudi Arabia Weather past 2 weeks in Medina, Saudi Arabia

Now
109 °F

Scattered clouds.


Feels Like: 102 °F
Forecast: 85 / 114 °F
Wind: 5 mph from Southeast

Location: Madinah

Current Time: Aug 20, 2014 at 2:11:30 PM

Latest Report: Aug 20, 2014 at 1:00 PM


Visibility: 4 mi

Pressure: 29.86 "Hg

Humidity: 6%

Dew point: 30 °F

Location of MedinaLocation

Historic Weather in Medina — Graph

°F

Medina temperature yesterday

Maximum temperature yesterday: 108 °F (at 3:00 PM)
Minimum temperature yesterday: 88 °F (at 7:00 AM)
Average temperature yesterday: 100 °F

Past Weeks' High & Low Weather Summary

 TemperatureHumidityPressure
High113 °F (Aug 14, 3:00 PM)24% (Aug 14, 4:00 AM)29.92 "Hg (Aug 14, 4:00 AM)
Low82 °F (Aug 7, 5:00 AM)2% (Aug 15, 3:00 PM)29.68 "Hg (Aug 16, 6:00 PM)
Average99 °F10%29.82 "Hg
* Reported Aug 5 1:00 PM — Aug 20 1:00 PM, Medina, Weather by CustomWeather, © 2014

Note: Actual official high and low records may vary slightly from our data, if they occured in-between our weather recording intervals... More about our weather records

Advertising

Medina weather history for previous 24 hours

 ConditionsComfort  
Time TempWeatherWind HumidityBarometerVisibility
1:00 PM
Aug 20
109 °FScattered clouds.5 mph6%29.86 "Hg4 mi
12:00 PM109 °FScattered clouds.3 mph6%29.89 "Hg4 mi
11:00 AM106 °FPassing clouds.5 mph7%29.92 "Hg4 mi
10:00 AM104 °FPassing clouds.No wind7%29.92 "Hg4 mi
9:00 AM99 °FPassing clouds.No wind8%29.92 "Hg4 mi
8:00 AM95 °FClear.6 mph10%29.92 "Hg4 mi
7:00 AM93 °FClear.8 mph11%29.92 "Hg4 mi
6:00 AM93 °FClear.5 mph12%29.89 "Hg5 mi
5:00 AM93 °FClear.9 mph13%29.89 "Hg10 mi
4:00 AM93 °FClear.8 mph14%29.89 "Hg10 mi
3:00 AM95 °FClear.13 mph11%29.89 "Hg10 mi
2:00 AM97 °FClear.10 mph9%29.89 "Hg10 mi
1:00 AM97 °FClear.7 mph9%29.89 "Hg10 mi
12:00 AM97 °FClear.8 mph9%29.92 "Hg10 mi
11:00 PM
Aug 19
99 °FClear.12 mph9%29.92 "Hg10 mi
10:00 PM102 °FClear.12 mph8%29.92 "Hg10 mi
9:00 PM104 °FClear.7 mph6%29.89 "Hg10 mi
8:00 PM106 °FClear.12 mph6%29.86 "Hg10 mi
7:00 PM106 °FClear.14 mph6%29.83 "Hg10 mi
6:00 PM108 °FClear.14 mph5%29.83 "Hg6 mi
5:00 PM108 °FClear.14 mph5%29.83 "Hg5 mi
4:00 PM108 °FClear.12 mph5%29.83 "Hg5 mi
3:00 PM108 °FSunny.9 mph4%29.86 "Hg10 mi
2:00 PM106 °FClear.3 mph6%29.86 "Hg6 mi
Weather by CustomWeather, © 2014

See weather overviewHow to use our weather pages